Weather History for Mammoth, CA

Change the Weather History Date:

Monday, June 24, 2013

  Actual Average Record
Temperature  
Mean Temperature 55 °F -  
Max Temperature 62 °F 74 °F 86 °F (2006)
Min Temperature 48 °F 61 °F 33 °F (2012)
Degree Days  
Heating Degree Days 10    
Growing Degree Days 5 (Base 50)    
Moisture  
Dew Point 37 °F    
Average Humidity 51    
Maximum Humidity 71    
Minimum Humidity 37    
Precipitation  
Precipitation 0.00 in - - ()
Sea Level Pressure  
Sea Level Pressure 30.00 in    
Wind  
Wind Speed 11 mph (West)    
Max Wind Speed 24 mph    
Max Gust Speed 37 mph    
Visibility 10 miles    
Events Rain    
Averages and records for this station are not official NWS values.
T = Trace of Precipitation, MM = Missing Value Source: NWS Daily Summary

Daily Weather History Graph

Daily Weather History Graph

Search for Another Location

Airport:

Trip Planner

Search our weather history database for the weather conditions in past years. The results will help you decide how hot, cold, wet, or windy it might be!

Date:

Astronomy

Jun. 24, 2013 Rise Set
Actual Time 5:35 AM PDT 8:20 PM PDT
Civil Twilight 5:03 AM PDT 8:51 PM PDT
Nautical Twilight 4:24 AM PDT 9:31 PM PDT
Astronomical Twilight 3:40 AM PDT 10:15 PM PDT
Moon 9:29 PM PDT 7:06 AM PDT
Length of Visible Light 15h 48m
Length of Day
14h 45m
Full, 97% of the Moon is Illuminated
Jun 24
Full
Jun 29
Last Quarter
Jul 8
New
Jul 15
First Quarter
Jul 22
Full

Hourly Weather History & Observations

Time (PDT) Temp. Dew Point Humidity Pressure Visibility Wind Dir Wind Speed Gust Speed Precip Events Conditions
12:15 AM 48.2 °F 32.0 °F 54% 29.97 in 10.0 mi NW 11.5 mph - N/A   Clear
12:35 AM 50.0 °F 32.0 °F 50% 29.97 in 10.0 mi WNW 16.1 mph 20.7 mph N/A   Clear
12:55 AM 50.0 °F 32.0 °F 50% 29.97 in 10.0 mi WNW 13.8 mph 18.4 mph N/A   Clear
1:15 AM 50.0 °F 32.0 °F 50% 29.96 in 10.0 mi NW 10.4 mph 17.3 mph N/A   Clear
1:35 AM 50.0 °F 32.0 °F 50% 29.95 in 10.0 mi NNW 10.4 mph 17.3 mph N/A   Clear
1:55 AM 48.2 °F 33.8 °F 58% 29.95 in 10.0 mi NW 9.2 mph - N/A   Clear
2:15 AM 50.0 °F 32.0 °F 50% 29.94 in 10.0 mi NW 9.2 mph - N/A   Clear
2:35 AM 50.0 °F 32.0 °F 50% 29.94 in 10.0 mi Calm Calm - N/A   Clear
2:55 AM 50.0 °F 32.0 °F 50% 29.94 in 10.0 mi Calm Calm - N/A   Clear
3:15 AM 51.8 °F 32.0 °F 47% 29.93 in 10.0 mi SW 3.5 mph - N/A   Clear
3:35 AM 53.6 °F 30.2 °F 41% 29.92 in 10.0 mi South 18.4 mph 26.5 mph N/A   Clear
3:55 AM 53.6 °F 30.2 °F 41% 29.93 in 10.0 mi Calm Calm - N/A   Scattered Clouds
4:15 AM 51.8 °F 32.0 °F 47% 29.93 in 10.0 mi NW 8.1 mph - N/A   Scattered Clouds
4:35 AM 55.4 °F 32.0 °F 41% 29.93 in 10.0 mi North 5.8 mph 23.0 mph N/A   Clear
4:55 AM 50.0 °F 32.0 °F 50% 29.93 in 10.0 mi East 5.8 mph - N/A   Clear
5:15 AM 51.8 °F 33.8 °F 50% 29.94 in 10.0 mi NNW 9.2 mph - N/A   Scattered Clouds
5:35 AM 51.8 °F 33.8 °F 50% 29.94 in 10.0 mi North 3.5 mph - N/A   Mostly Cloudy
5:55 AM 51.8 °F 32.0 °F 47% 29.95 in 10.0 mi NNW 11.5 mph 16.1 mph N/A   Overcast
6:15 AM 53.6 °F 32.0 °F 44% 29.94 in 10.0 mi SW 4.6 mph - N/A   Scattered Clouds
6:35 AM 50.0 °F 33.8 °F 54% 29.95 in 10.0 mi WSW 5.8 mph - N/A   Clear
6:55 AM 50.0 °F 33.8 °F 54% 29.95 in 10.0 mi NNW 8.1 mph - N/A   Clear
7:15 AM 50.0 °F 33.8 °F 54% 29.95 in 10.0 mi NNW 8.1 mph - N/A   Clear
7:35 AM 53.6 °F 33.8 °F 47% 29.95 in 10.0 mi NW 8.1 mph 17.3 mph N/A   Scattered Clouds
7:55 AM 53.6 °F 32.0 °F 44% 29.95 in 10.0 mi West 9.2 mph - N/A   Mostly Cloudy
8:15 AM 55.4 °F 33.8 °F 44% 29.97 in 10.0 mi WNW 9.2 mph 23.0 mph N/A   Scattered Clouds
8:35 AM 57.2 °F 33.8 °F 41% 29.96 in 10.0 mi SSW 15.0 mph 28.8 mph N/A   Mostly Cloudy
8:55 AM 57.2 °F 35.6 °F 44% 29.97 in 10.0 mi SSE 10.4 mph 21.9 mph N/A   Mostly Cloudy
9:15 AM 59.0 °F 35.6 °F 42% 29.95 in 10.0 mi SSW 19.6 mph 26.5 mph N/A   Scattered Clouds
9:35 AM 59.0 °F 35.6 °F 42% 29.97 in 10.0 mi SSE 5.8 mph 9.2 mph N/A   Clear
9:55 AM 60.8 °F 35.6 °F 39% 29.96 in 10.0 mi WSW 18.4 mph 32.2 mph N/A   Scattered Clouds
10:15 AM 62.6 °F 35.6 °F 37% 29.96 in 10.0 mi SW 12.7 mph 18.4 mph N/A   Mostly Cloudy
10:35 AM 62.6 °F 35.6 °F 37% 29.98 in 10.0 mi West 19.6 mph 28.8 mph N/A   Mostly Cloudy
10:55 AM 59.0 °F 37.4 °F 45% 29.98 in 10.0 mi WSW 23.0 mph 34.5 mph N/A Rain Light Rain
11:15 AM 59.0 °F 37.4 °F 45% 29.99 in 10.0 mi SW 21.9 mph 34.5 mph N/A   Overcast
11:35 AM 59.0 °F 37.4 °F 45% 29.98 in 10.0 mi SSW 17.3 mph 31.1 mph N/A   Mostly Cloudy
11:55 AM 60.8 °F 35.6 °F 39% 29.98 in 10.0 mi SW 21.9 mph 29.9 mph N/A   Mostly Cloudy
12:15 PM 60.8 °F 35.6 °F 39% 29.98 in 10.0 mi SSW 20.7 mph 28.8 mph N/A   Overcast
12:35 PM 60.8 °F 35.6 °F 39% 29.98 in 10.0 mi SW 24.2 mph 29.9 mph N/A   Mostly Cloudy
12:55 PM 60.8 °F 35.6 °F 39% 29.99 in 10.0 mi SW 16.1 mph 28.8 mph N/A   Scattered Clouds
1:15 PM 60.8 °F 35.6 °F 39% 30.00 in 10.0 mi WSW 12.7 mph 32.2 mph N/A   Mostly Cloudy
1:35 PM 60.8 °F 35.6 °F 39% 29.99 in 10.0 mi South 15.0 mph 35.7 mph N/A   Overcast
1:55 PM 60.8 °F 35.6 °F 39% 30.00 in 10.0 mi SW 19.6 mph 26.5 mph N/A   Overcast
2:15 PM 60.8 °F 35.6 °F 39% 29.99 in 10.0 mi SW 19.6 mph 36.8 mph N/A   Mostly Cloudy
2:35 PM 60.8 °F 37.4 °F 42% 30.00 in 10.0 mi SW 16.1 mph 33.4 mph N/A   Overcast
2:55 PM 60.8 °F 37.4 °F 42% 29.99 in 10.0 mi SSW 21.9 mph 29.9 mph N/A   Overcast
3:15 PM 60.8 °F 37.4 °F 42% 30.00 in 10.0 mi SSW 21.9 mph 34.5 mph N/A   Overcast
3:35 PM 60.8 °F 39.2 °F 45% 30.01 in 10.0 mi SW 18.4 mph 28.8 mph N/A   Overcast
3:55 PM 60.8 °F 39.2 °F 45% 30.02 in 10.0 mi SW 12.7 mph 21.9 mph N/A   Overcast
4:15 PM 60.8 °F 39.2 °F 45% 30.03 in 10.0 mi WSW 15.0 mph 21.9 mph N/A   Overcast
4:35 PM 60.8 °F 39.2 °F 45% 30.02 in 10.0 mi SW 13.8 mph 24.2 mph N/A   Overcast
4:55 PM 59.0 °F 41.0 °F 51% 30.03 in 10.0 mi West 10.4 mph 21.9 mph N/A   Overcast
5:15 PM 60.8 °F 41.0 °F 48% 30.03 in 10.0 mi NW 11.5 mph 19.6 mph N/A   Overcast
5:35 PM 57.2 °F 41.0 °F 55% 30.03 in 10.0 mi West 15.0 mph 24.2 mph N/A   Mostly Cloudy
5:55 PM 57.2 °F 41.0 °F 55% 30.03 in 10.0 mi WNW 13.8 mph 19.6 mph N/A   Mostly Cloudy
6:15 PM 55.4 °F 42.8 °F 63% 30.04 in 10.0 mi NW 17.3 mph 25.3 mph N/A   Mostly Cloudy
6:35 PM 55.4 °F 42.8 °F 63% 30.05 in 10.0 mi WNW 13.8 mph 19.6 mph N/A   Mostly Cloudy
6:55 PM 53.6 °F 42.8 °F 67% 30.06 in 10.0 mi WNW 17.3 mph 26.5 mph N/A   Scattered Clouds
7:15 PM 53.6 °F 42.8 °F 67% 30.06 in 10.0 mi WNW 16.1 mph 24.2 mph N/A   Scattered Clouds
7:35 PM 55.4 °F 41.0 °F 58% 30.06 in 10.0 mi West 9.2 mph 16.1 mph N/A   Clear
7:55 PM 55.4 °F 41.0 °F 58% 30.06 in 10.0 mi West 11.5 mph - N/A   Clear
8:15 PM 51.8 °F 41.0 °F 67% 30.07 in 10.0 mi NW 10.4 mph - N/A   Scattered Clouds
8:35 PM 51.8 °F 41.0 °F 67% 30.07 in 10.0 mi NNE 11.5 mph - N/A   Mostly Cloudy
8:55 PM 51.8 °F 41.0 °F 67% 30.07 in 10.0 mi North 5.8 mph - N/A   Mostly Cloudy
9:15 PM 51.8 °F 41.0 °F 67% 30.08 in 10.0 mi SE 4.6 mph - N/A   Mostly Cloudy
9:35 PM 51.8 °F 42.8 °F 71% 30.09 in 10.0 mi North 4.6 mph - N/A   Mostly Cloudy
9:55 PM 51.8 °F 41.0 °F 67% 30.10 in 10.0 mi Calm Calm - N/A   Overcast
10:15 PM 51.8 °F 41.0 °F 67% 30.11 in 10.0 mi West 5.8 mph - N/A   Overcast
10:35 PM 51.8 °F 42.8 °F 71% 30.10 in 10.0 mi NW 4.6 mph - N/A   Overcast
10:55 PM 51.8 °F 42.8 °F 71% 30.10 in 10.0 mi NW 6.9 mph - N/A   Overcast
11:15 PM 51.8 °F 41.0 °F 67% 30.10 in 10.0 mi Calm Calm - N/A   Overcast
11:35 PM 50.0 °F 41.0 °F 71% 30.11 in 10.0 mi Calm Calm - N/A   Overcast
11:55 PM 50.0 °F 41.0 °F 71% 30.11 in 10.0 mi Calm Calm - N/A   Overcast